| time (UTC) | temp F | wind direction | speed knots | gust knots | rain 1hr in | rain 24hr in | rain mn in | humidity % | barometer mb |
| 20260506163308 | 55 | 112 | 2.6 | 4.3 | 0.00 | 0.00 | 0.00 | 75 | 990.0 |
| 20260506161307 | 55 | 112 | 1.7 | 3.5 | 0.00 | 0.00 | 0.00 | 71 | 990.0 |
| 20260506155308 | 57 | 112 | 1.7 | 4.3 | 0.00 | 0.00 | 0.00 | 69 | 990.0 |
| 20260506153308 | 59 | 112 | 3.5 | 7.0 | 0.00 | 0.00 | 0.00 | 65 | 991.0 |
| 20260506151340 | 59 | 112 | 3.5 | 6.1 | 0.00 | 0.00 | 0.00 | 62 | 990.0 |
| 20260506151308 | 59 | 112 | 3.5 | 6.1 | 0.00 | 0.00 | 0.00 | 62 | 990.0 |
| 20260506145308 | 60 | 112 | 2.6 | 3.5 | 0.00 | 0.00 | 0.00 | 59 | 990.0 |
| 20260506143308 | 60 | 112 | 1.7 | 2.6 | 0.00 | 0.00 | 0.00 | 57 | 990.0 |
| 20260506141340 | 62 | 112 | 1.7 | 4.3 | 0.00 | 0.00 | 0.00 | 56 | 990.0 |
| 20260506141308 | 62 | 112 | 1.7 | 4.3 | 0.00 | 0.00 | 0.00 | 56 | 990.0 |
| 20260506135307 | 62 | 112 | 1.7 | 2.6 | 0.00 | 0.00 | 0.00 | 58 | 990.0 |
| 20260506133309 | 64 | 112 | 1.7 | 4.3 | 0.00 | 0.00 | 0.00 | 57 | 990.0 |
| 20260506131308 | 62 | 112 | 2.6 | 6.1 | 0.00 | 0.00 | 0.00 | 53 | 991.0 |
| 20260506125308 | 64 | 112 | 2.6 | 4.3 | 0.00 | 0.00 | 0.00 | 50 | 990.0 |
| 20260506123308 | 66 | 112 | 1.7 | 3.5 | 0.00 | 0.00 | 0.00 | 51 | 990.0 |
| 20260506121307 | 66 | 135 | 1.7 | 2.6 | 0.00 | 0.00 | 0.00 | 46 | 991.0 |
| 20260506115307 | 66 | 135 | 1.7 | 3.5 | 0.00 | 0.00 | 0.00 | 47 | 991.0 |
| 20260506113308 | 68 | 135 | 1.7 | 3.5 | 0.00 | 0.00 | 0.00 | 45 | 990.0 |
| 20260506111308 | 68 | 135 | 2.6 | 6.1 | 0.00 | 0.00 | 0.00 | 46 | 991.0 |
| 20260506105308 | 68 | 112 | 1.7 | 3.5 | 0.00 | 0.00 | 0.00 | 46 | 991.0 |
| 20260506103309 | 66 | 112 | 2.6 | 5.2 | 0.00 | 0.00 | 0.00 | 48 | 991.0 |
| 20260506101308 | 66 | 112 | 2.6 | 7.0 | 0.00 | 0.00 | 0.00 | 48 | 991.0 |
| 20260506095308 | 66 | 112 | 1.7 | 4.3 | 0.00 | 0.00 | 0.00 | 48 | 991.0 |
| 20260506093307 | 66 | 112 | 2.6 | 4.3 | 0.00 | 0.00 | 0.00 | 48 | 991.0 |
| 20260506091308 | 66 | 112 | 2.6 | 7.0 | 0.00 | 0.00 | 0.00 | 49 | 991.0 |
| 20260506085307 | 66 | 112 | 2.6 | 3.5 | 0.00 | 0.00 | 0.00 | 50 | 992.0 |
| 20260506083308 | 64 | 135 | 0.9 | 2.6 | 0.00 | 0.00 | 0.00 | 54 | 991.0 |
| 20260506081339 | 64 | 112 | 1.7 | 2.6 | 0.00 | 0.00 | 0.00 | 56 | 991.0 |
| 20260506081307 | 64 | 112 | 1.7 | 2.6 | 0.00 | 0.00 | 0.00 | 56 | 991.0 |
| 20260506073309 | 62 | 112 | 0.9 | 3.5 | 0.00 | 0.00 | 0.00 | 64 | 990.0 |
| 20260506071308 | 60 | 112 | 2.6 | 5.2 | 0.00 | 0.00 | 0.00 | 64 | 990.0 |
| 20260506061308 | 57 | 112 | 1.7 | 4.3 | 0.00 | 0.00 | 0.00 | 70 | 991.0 |
| 20260506051308 | 55 | 112 | 0.0 | 1.7 | 0.00 | 0.00 | 0.00 | 56 | 990.0 |
| 20260506043309 | 53 | 315 | 0.0 | 0.9 | 0.00 | 0.00 | 0.00 | 61 | 990.0 |
| 20260506041308 | 51 | 315 | 0.0 | 0.0 | 0.00 | 0.00 | 0.00 | 59 | 990.0 |
| 20260506035309 | 50 | 315 | 0.0 | 0.0 | 0.00 | 0.00 | 0.00 | 60 | 990.0 |
| 20260506033308 | 48 | 315 | 0.0 | 0.0 | 0.00 | 0.00 | 0.00 | 60 | 990.0 |
| 20260506031309 | 46 | 315 | 0.0 | 0.0 | 0.00 | 0.00 | 0.00 | 62 | 990.0 |
| 20260506025308 | 46 | 315 | 0.0 | 0.0 | 0.00 | 0.00 | 0.00 | 62 | 990.0 |
| 20260506023309 | 46 | 315 | 0.0 | 0.0 | 0.00 | 0.00 | 0.00 | 63 | 990.0 |
| 20260506021308 | 44 | 337 | 0.0 | 0.0 | 0.00 | 0.00 | 0.00 | 65 | 990.0 |
| 20260506015307 | 44 | 337 | 0.0 | 0.0 | 0.00 | 0.00 | 0.00 | 66 | 990.0 |
| 20260506013307 | 46 | 202 | 0.0 | 0.9 | 0.00 | 0.00 | 0.00 | 67 | 990.0 |
| 20260506011308 | 44 | 202 | 0.0 | 0.9 | 0.00 | 0.00 | 0.00 | 68 | 990.0 |
| 20260506005850 | 44 | 202 | 0.0 | 0.0 | 0.00 | 0.00 | 0.00 | 71 | 990.0 |
| 20260506005341 | 44 | 202 | 0.0 | 0.0 | 0.00 | 0.00 | 0.00 | 67 | 990.0 |
| 20260506005308 | 44 | 202 | 0.0 | 0.0 | 0.00 | 0.00 | 0.00 | 67 | 990.0 |
| 20260506003309 | 44 | 202 | 0.0 | 0.0 | 0.00 | 0.00 | 0.00 | 69 | 990.0 |
| 20260506001308 | 44 | 202 | 0.0 | 0.0 | 0.00 | 0.00 | 0.00 | 71 | 990.0 |
| 20260505235308 | 44 | 270 | 0.0 | 0.0 | 0.00 | 0.00 | 0.00 | 72 | 990.0 |
| 20260505233308 | 44 | 270 | 0.0 | 0.0 | 0.00 | 0.00 | 0.00 | 76 | 990.0 |
| 20260505231309 | 44 | 270 | 0.0 | 0.0 | 0.00 | 0.00 | 0.00 | 77 | 991.0 |
| 20260505225344 | 44 | 157 | 0.0 | 0.0 | 0.00 | 0.00 | 0.00 | 79 | 991.0 |
| 20260505225308 | 44 | 157 | 0.0 | 0.0 | 0.00 | 0.00 | 0.00 | 79 | 991.0 |
| 20260505223308 | 44 | 157 | 0.0 | 0.0 | 0.00 | 0.00 | 0.00 | 80 | 991.0 |
| 20260505221309 | 46 | 135 | 0.0 | 0.0 | 0.00 | 0.00 | 0.00 | 82 | 991.0 |
| 20260505215308 | 46 | 135 | 0.0 | 0.0 | 0.00 | 0.00 | 0.00 | 82 | 990.0 |
| 20260505213308 | 48 | 135 | 0.0 | 0.0 | 0.00 | 0.00 | 0.00 | 84 | 990.0 |
| 20260505211309 | 48 | 112 | 0.0 | 0.0 | 0.00 | 0.00 | 0.00 | 84 | 990.0 |
| 20260505205308 | 48 | 112 | 0.0 | 0.0 | 0.00 | 0.00 | 0.00 | 84 | 991.0 |
| 20260505203308 | 48 | 112 | 0.0 | 0.0 | 0.00 | 0.00 | 0.00 | 83 | 991.0 |
| 20260505201308 | 48 | 112 | 0.0 | 0.9 | 0.00 | 0.00 | 0.00 | 82 | 991.0 |
| 20260505195309 | 48 | 135 | 0.0 | 0.0 | 0.00 | 0.00 | 0.00 | 81 | 991.0 |
| 20260505193308 | 48 | 112 | 0.0 | 1.7 | 0.00 | 0.00 | 0.00 | 82 | 991.0 |
| 20260505191308 | 48 | 112 | 0.0 | 0.9 | 0.00 | 0.00 | 0.00 | 80 | 991.0 |
| 20260505185308 | 50 | 112 | 0.9 | 1.7 | 0.00 | 0.00 | 0.00 | 80 | 991.0 |
| 20260505183308 | 50 | 135 | 0.9 | 1.7 | 0.00 | 0.00 | 0.00 | 77 | 991.0 |
| 20260505181309 | 50 | 112 | 0.9 | 1.7 | 0.00 | 0.00 | 0.00 | 70 | 991.0 |
| 20260505175309 | 51 | 112 | 0.0 | 1.7 | 0.00 | 0.00 | 0.00 | 68 | 990.0 |
| 20260505173308 | 51 | 112 | 0.0 | 0.9 | 0.00 | 0.00 | 0.00 | 65 | 990.0 |
| 20260505171308 | 53 | 135 | 0.0 | 1.7 | 0.00 | 0.00 | 0.00 | 61 | 989.0 |
| 20260505165308 | 55 | 135 | 0.0 | 1.7 | 0.00 | 0.00 | 0.00 | 60 | 990.0 |